Snowfall_Accumulation
0.0 0.0 0.0 0.0 0.0 0.0 0.0 0.0 11.6 0.0 0.0 6.2 4.6 3.8 0.1 0.0 0.1 0.0 0.6 1.2 2.5 6.3 3.6 4.8 4.4 1.3 1.5 0.0 0.0 0.0 0.0 5.0 6.8 0.6 0.0 0.0 0.0 0.0 0.1 7.1 4.2 3.9 13.4 20.9
0.0 0.0 0.0 0.0 0.0 0.0 0.0 1.9 1.7 0.0 0.0 12.6 7.4 0.8 0.0 0.0 0.0 0.0 1.1 1.6 1.8 3.0 6.9 10.7 8.0 1.6 0.0 0.0 0.0 0.0 0.0 4.0 3.5 2.0 0.0 0.0 0.0 0.0 0.0 0.2 1.6 9.2 22.3 18.3
0.0 0.0 0.0 0.0 0.0 0.0 0.0 6.5 27.4 0.0 0.0 1.0 1.3 2.8 2.5 1.6 0.0 0.0 0.1 1.1 2.4 3.8 5.1 3.8 7.1 1.7 0.0 0.0 0.0 0.0 0.0 1.3 4.4 8.9 5.6 2.0 1.6 0.2 0.0 0.9 13.3 10.3 13.1 11.4
0.0 0.0 0.0 0.0 0.0 0.0 0.0 9.0 14.1 0.2 23.4 8.6 2.5 0.9 1.8 1.8 1.9 0.0 0.3 3.7 1.5 2.9 9.6 4.5 4.4 1.7 0.0 0.0 0.0 0.0 0.1 3.7 4.4 2.8 3.2 1.6 4.8 3.8 3.2 2.8 3.2 9.9 11.3 6.0
0.0 0.0 0.0 0.0 0.0 0.0 0.0 32.8 7.5 0.7 2.2 0.5 5.7 5.5 4.4 1.1 1.2 3.7 3.5 1.0 0.1 0.4 3.0 1.9 4.1 1.4 0.6 1.4 0.0 0.0 0.0 2.4 5.6 13.5 2.8 1.8 9.2 8.9 5.8 2.6 2.9 3.7 2.1 4.4
0.0 0.0 0.0 0.0 0.0 0.0 4.1 0.0 0.0 1.4 5.9 3.8 6.9 6.4 2.9 1.7 0.7 0.3 0.1 0.3 1.1 1.0 0.3 0.0 0.0 0.0 0.2 0.0 0.4 0.1 0.6 2.1 4.2 11.9 2.8 1.6 7.9 9.9 5.5 2.4 1.4 0.9 1.7 2.1
0.0 0.0 0.0 0.0 0.0 0.0 0.0 0.0 0.0 7.7 14.0 3.7 1.5 0.7 0.0 0.7 0.1 1.5 0.0 0.0 1.2 0.0 0.0 0.0 0.0 0.0 0.0 0.0 0.0 0.0 0.0 1.3 5.0 10.1 3.5 20.0 9.0 2.2 1.9 1.9 1.4 0.7 0.8 1.5
0.0 0.0 0.0 0.0 0.0 0.0 0.0 0.0 0.0 5.8 9.9 1.1 0.6 0.2 0.0 0.0 0.0 0.6 0.0 0.0 0.0 0.0 0.0 4.7 3.5 0.1 0.1 0.0 0.0 0.0 0.1 1.8 11.5 12.1 4.5 3.7 1.8 1.0 2.2 1.9 2.3 1.3 2.9 1.0
0.0 0.0 0.0 0.0 0.0 0.0 0.0 0.0 0.0 1.0 8.7 1.4 0.0 0.2 0.1 1.6 1.3 0.9 0.0 0.0 0.0 0.0 3.5 6.9 8.2 2.7 0.7 0.3 0.3 0.0 0.1 0.7 11.2 10.7 14.6 8.7 0.7 0.1 0.0 0.0 2.2 1.5 4.2 3.7
0.0 0.0 0.0 0.0 0.0 0.0 0.0 0.0 0.0 0.0 11.5 0.0 0.0 0.5 0.6 0.0 0.6 2.2 0.0 0.0 0.0 0.0 6.1 11.1 5.6 3.0 2.1 4.0 1.7 0.7 2.1 4.3 16.6 13.7 19.9 3.3 0.2 0.4 0.4 6.7 8.2 4.0 2.8 2.5
0.0 0.0 0.0 0.0 0.0 0.0 0.0 0.0 0.0 0.0 8.1 0.0 0.0 0.0 0.2 0.4 0.8 4.9 0.3 2.5 1.8 4.0 12.5 8.2 6.0 2.2 0.4 0.9 0.0 0.3 1.2 6.8 6.2 8.0 17.8 11.9 0.3 1.2 6.0 5.7 3.7 1.5 1.2 0.7
0.0 0.0 0.0 0.0 0.0 0.0 0.0 0.0 0.0 0.0 0.6 0.2 0.0 0.0 0.0 0.0 0.0 0.8 1.5 1.2 0.6 1.8 6.6 6.5 3.9 3.7 1.8 1.3 5.5 0.2 4.7 3.6 6.7 5.3 3.9 1.6 1.1 4.2 2.0 2.0 4.6 2.0 0.9 0.4
0.0 0.0 0.0 0.0 0.0 0.0 0.0 0.0 0.0 0.0 4.4 0.3 0.0 0.0 0.0 0.0 0.0 0.0 1.8 0.0 0.5 1.7 0.1 4.6 4.5 5.5 0.3 3.7 1.5 2.2 1.4 0.0 4.3 3.7 3.4 3.8 1.8 0.3 0.2 0.5 1.2 0.7 0.6 0.3
0.0 0.0 0.0 0.0 0.0 0.0 0.0 0.0 0.0 0.0 0.5 10.1 0.6 0.0 0.0 0.0 0.0 0.0 0.0 0.0 0.0 0.0 0.0 2.7 2.7 3.2 0.0 2.2 2.3 2.3 2.0 2.8 7.8 9.8 5.1 2.5 0.8 0.9 0.9 0.9 0.5 0.3 1.2 1.2
0.0 0.0 0.0 0.0 0.0 0.0 0.0 0.0 0.0 0.0 0.7 8.3 1.8 0.0 0.0 0.0 0.0 0.0 0.0 0.0 0.0 0.0 2.1 4.4 2.2 0.0 0.3 0.0 0.9 2.0 0.7 4.4 12.8 16.6 6.8 5.9 3.5 1.5 1.1 1.4 2.1 1.3 0.5 0.0
0.0 0.0 0.0 0.0 0.0 0.0 0.0 23.9 0.0 0.0 0.0 7.7 6.8 0.0 0.0 0.0 0.0 0.0 0.0 0.0 0.0 0.2 2.0 1.9 0.1 0.0 0.7 7.6 5.9 1.9 1.0 0.9 2.1 6.3 4.7 5.3 4.0 2.5 1.6 1.4 0.8 0.0 0.0 0.0
0.0 0.0 0.0 0.0 0.0 0.0 0.4 2.4 0.0 0.0 0.0 9.0 10.3 0.5 0.0 0.0 0.0 0.9 0.0 0.6 0.3 0.2 1.5 1.6 0.1 0.0 1.9 9.9 8.0 3.4 2.0 2.2 2.5 2.6 3.4 3.8 1.7 1.4 0.4 0.0 0.0 0.0 0.0 0.0
0.0 0.0 0.0 0.0 0.0 0.0 0.0 0.0 0.0 0.0 0.0 0.9 9.4 5.4 1.4 0.0 1.0 4.5 1.1 2.0 1.7 3.0 1.6 1.3 0.4 0.5 1.5 7.3 0.5 0.0 0.2 0.4 1.3 1.2 0.4 1.0 0.5 0.0 0.0 0.0 0.0 0.0 0.0 0.1
0.0 0.0 0.0 0.0 0.0 0.9 0.0 0.0 0.0 0.0 0.8 8.6 3.8 6.3 13.3 0.0 0.3 1.5 4.6 3.6 13.1 0.0 4.0 0.6 1.3 4.3 11.9 5.1 0.6 0.1 0.3 0.7 0.4 0.0 0.1 0.0 0.3 0.0 0.0 0.0 0.0 0.2 1.8 1.2
0.0 0.0 4.2 38.4 1.5 0.0 0.0 0.0 7.7 10.8 4.2 2.1 3.9 0.7 4.0 0.0 2.8 7.1 8.6 6.9 10.1 11.6 2.5 0.2 5.3 7.6 4.1 1.2 0.2 0.4 0.5 0.3 0.0 0.0 0.0 0.0 0.3 0.4 0.3 0.9 1.1 1.8 1.7 0.8
0.0 11.9 16.1 0.0 0.0 0.0 4.3 26.9 19.1 9.5 9.0 1.0 0.6 0.3 7.0 1.7 8.7 6.4 1.5 9.0 7.1 13.4 10.1 8.2 10.7 13.6 10.6 2.0 0.8 0.1 0.0 0.0 0.0 0.0 0.0 0.2 0.5 1.1 2.2 1.6 0.2 0.1 1.1 1.4
0.0 0.0 0.0 0.0 4.4 12.3 22.4 17.3 7.7 2.6 2.8 0.8 0.9 1.1 2.3 5.9 1.7 7.9 7.4 10.2 10.2 11.3 5.3 12.5 15.0 8.8 0.9 0.1 0.2 0.2 0.1 0.0 0.1 0.3 0.4 0.5 0.9 0.7 1.3 1.2 1.6 1.8 2.0 2.7
0.0 3.8 11.4 13.6 20.5 29.3 18.8 14.6 7.8 6.2 4.6 2.4 2.8 4.6 2.2 4.0 4.7 12.4 6.9 9.2 14.4 4.4 17.8 13.6 10.4 4.8 1.4 1.1 1.8 0.2 0.2 0.2 0.3 0.5 0.4 0.5 0.8 0.8 0.8 1.4 1.9 2.1 3.3 5.1
7.8 18.6 25.1 22.9 21.9 12.7 12.4 6.6 5.2 4.9 4.0 2.3 3.6 1.8 2.2 2.0 9.4 12.2 14.6 12.9 10.4 20.4 13.4 16.4 12.7 7.8 5.6 3.2 2.5 1.7 3.4 2.4 2.5 2.8 3.0 3.2 4.4 4.7 6.4 7.5 8.8 8.4 11.9 15.3
12.6 11.5 18.1 14.2 11.1 9.2 7.8 5.4 3.4 2.2 2.2 2.4 3.3 3.8 3.8 9.9 13.9 9.7 8.8 11.2 12.6 9.6 14.9 13.8 8.9 6.7 5.3 4.7 4.8 5.3 6.1 6.2 6.8 7.0 7.3 8.7 9.0 8.3 11.0 11.7 11.6 10.1 11.0 11.6
5.9 7.4 12.0 8.4 7.1 9.7 7.3 6.9 6.8 3.4 4.4 3.7 6.9 11.6 13.6 14.7 8.4 6.3 7.5 6.4 11.5 15.5 12.1 7.0 5.8 6.3 6.3 6.8 7.0 7.9 8.1 7.6 7.5 7.8 7.4 7.8 8.6 8.1 9.2 9.4 9.7 9.7 7.9 8.4
5.1 10.6 9.6 9.8 8.1 10.6 9.9 7.7 5.9 3.1 3.5 10.4 9.4 10.2 9.9 5.4 7.9 10.2 9.8 18.8 19.6 11.9 11.3 10.4 8.6 8.9 9.8 9.4 9.4 9.9 9.3 8.6 8.2 7.9 7.7 8.2 8.0 6.1 4.3 6.2 8.7 6.7 6.5 6.0